Regional Weather Roundup
Issued by NWS Charleston, WV

Home | Current Version | Previous Version | Text Only | Print | Product List | Glossary Off
Versions: 1 2 3 4 5 6 7 8 9 10 11 12 13 14 15 16 17 18 19 20 21 22 23 24 25 26 27 28 29 30 31 32 33 34 35 36 37 38 39 40 41 42 43 44 45 46 47 48 49 50

000
ASUS41 KRLX 230810
RWRRLX
West Virginia Regional Weather Roundup
National Weather Service Charleston WV
Issued by National Weather Service Pittsburgh PA
300 AM EST MON JAN 23 2017

Note: "fair" indicates few or no clouds below 12,000 feet with no
significant weather and/or obstructions to visibility.

WVZ003-230900-
Northern Panhandle of West Virginia

CITY           SKY/WX    TMP DP  RH WIND       PRES   REMARKS
WHEELING       LGT RAIN  49  45  86 E13G22    29.47S
$$

WVZ009-230900-
Northwest West Virginia

CITY           SKY/WX    TMP DP  RH WIND       PRES   REMARKS
PARKERSBURG    CLOUDY    52  46  80 NE10      29.42S
$$

WVZ006-230900-
Western West Virginia

CITY           SKY/WX    TMP DP  RH WIND       PRES   REMARKS
HUNTINGTON     CLOUDY    53  50  89 NE12G18   29.32F
$$

WVZ015-230900-
West Central West Virginia

CITY           SKY/WX    TMP DP  RH WIND       PRES   REMARKS
CHARLESTON     CLOUDY    54  48  80 NE5       29.32F
$$

WVZ031-230900-
North Central West Virginia

CITY           SKY/WX    TMP DP  RH WIND       PRES   REMARKS
CLARKSBURG     CLOUDY    50  44  80 NE8       29.42R
MORGANTOWN     MOCLDY    53  41  63 VRB7      29.45R
$$

WVZ035-042-230900-
South Central West Virginia

CITY           SKY/WX    TMP DP  RH WIND       PRES   REMARKS
BECKLEY        CLOUDY    48  44  86 E14       29.30F
BLUEFIELD      RAIN      45  44  97 E8G18     29.28F
$$

WVZ045-230900-
Greenbrier Valley of West Virginia

CITY           SKY/WX    TMP DP  RH WIND       PRES   REMARKS
LEWISBURG      DRIZZLE   46  44  92 NE14G22   29.34F
$$

WVZ047-230900-
Northern Mountains of West Virginia

CITY           SKY/WX    TMP DP  RH WIND       PRES   REMARKS
ELKINS         CLOUDY    50  40  68 VRB3      29.41F
$$

WVZ052-230900-
Eastern Panhandle of West Virginia

CITY           SKY/WX    TMP DP  RH WIND       PRES   REMARKS
MARTINSBURG    LGT RAIN  48  46  93 E14G22    29.59S FOG
PETERSBURG     RAIN      47  46  97 CALM      29.53F
$$



USA.gov is the U.S. government's official web portal to all federal, state and local government web resources and services.